Regional Weather Roundup
Issued by NWS State College, PA

Home | Current Version | Previous Version | Text Only | Print | Product List | Glossary Off
Versions: 1 2 3 4 5 6 7 8 9 10 11 12 13 14 15 16 17 18 19 20 21 22 23 24 25 26 27 28 29 30 31 32 33 34 35 36 37 38 39 40 41 42 43 44 45 46 47 48 49 50

000
ASUS41 KCTP 271710
RWRCTP

REGIONAL WEATHER ROUNDUP
NATIONAL WEATHER SERVICE STATE COLLEGE PA
100 PM EDT FRI MAR 27 2015

Note: "fair" indicates few or no clouds below 12,000 feet with no
significant weather and/or obstructions to visibility.

* = STATION THAT DOES NOT REPORT PRECIPITATION /E.G. RAIN...SNOW...ETC/
    THUNDER OR FOG.

PAZ002>004-007>009-013>016-020>023-029>032-271800-
WESTERN PENNSYLVANIA

CITY           SKY/WX    TMP DP  RH WIND       PRES   REMARKS
ERIE           CLOUDY    27  20  75 W10       29.93R
MEADVILLE      LGT SNOW  27  18  69 W12       29.88S
FRANKLIN*      CLOUDY    28  19  69 W10       29.88S
NEW CASTLE     FLURRIES  30  23  75 N10       29.91F
BEAVER COUNTY  CLOUDY    32  23  69 NW8       29.88F
BUTLER*        CLOUDY    34  25  69 NW6       29.89S
PITTSBURGH INT FLURRIES  32  25  75 N10       29.88S
PITTSBURGH     CLOUDY    32  24  72 NW12      29.86S
INDIANA*       CLOUDY    34  28  80 NW9       29.86F HAZE
LATROBE        PTSUNNY   37  28  70 NW8       29.86F
WASHINGTON CO* CLOUDY    36  25  64 N9        29.88F
$$

PAZ004>006-010>012-017>019-024>028-033>037-041-042-045-046-049>053-271800-
CENTRAL PENNSYLVANIA

CITY           SKY/WX    TMP DP  RH WIND       PRES   REMARKS
BRADFORD       CLOUDY    30  20  66 W10       29.78S
DUBOIS         CLOUDY    34  25  69 NW10      29.79F
CLEARFIELD     CLOUDY    37  23  56 W10       29.80F
JOHNSTOWN      CLOUDY    34  26  72 NW10      29.76F
ALTOONA        CLOUDY    39  24  55 NW13      29.79F
STATE COLLEGE  CLOUDY    37  21  52 NW8       29.80F
WILLIAMSPORT   CLOUDY    42  20  41 NW7G16    29.80F
SELINSGROVE    CLOUDY    43  25  49 NW12      29.81F
FT INDIANTOWN  CLOUDY    42  22  44 N9G16     29.79F
CAPITAL CITY   CLOUDY    44  24  45 N10       29.81R
HARRISBURG     CLOUDY    44  26  49 NW13      29.80R
YORK           CLOUDY    43  27  53 NW10      29.81R
$$

PAZ038>040-043-044-047-048-054-055-060>062-067>071-271800-
EASTERN PENNSYLVANIA

CITY           SKY/WX    TMP DP  RH WIND       PRES   REMARKS
SCRANTON       CLOUDY    39  25  57 N14G20    29.76F
MOUNT POCONO   CLOUDY    34  26  72 N14G20    29.69F
ALLENTOWN      CLOUDY    43  28  55 NW9       29.77S
QUAKERTOWN*    CLOUDY    41  30  65 N10       29.77F
READING        CLOUDY    43  27  53 NW13      29.78F
LANCASTER      CLOUDY    42  28  57 N7        29.78F
COATESVILLE    CLOUDY    41  27  56 N13       29.79R
POTTSTOWN      CLOUDY    42  28  57 N10       29.79S
BLUE BELL      CLOUDY    45  32  61 NW8       29.77S
DOYLESTOWN     CLOUDY    43  33  68 NW7       29.76R
WILLOW GROVE   NOT AVBL
NORTH PHILA    CLOUDY    46  31  55 N13       29.78R
PHILADELPHIA   CLOUDY    45  32  60 N14       29.78R
$$


USA.gov is the U.S. government's official web portal to all federal, state and local government web resources and services.